| time (UTC) | temp C | wind direction | speed KPH | gust KPH | rain 1hr cm | rain 24hr cm | rain mn cm | humidity % | barometer mb |
| 20260906161500 | 23 | 135 | 8.0 | 12.9 | 0.00 | 0.00 | 0.00 | 65 | 1021.3 |
| 20260906160740 | 23 | 108 | 6.4 | 6.4 | 0.00 | 0.00 | 0.00 | 66 | 1021.1 |
| 20260906160211 | 23 | 135 | 0.0 | 11.3 | 0.00 | 0.00 | 0.00 | 65 | 1021.3 |
| 20260906155710 | 23 | 87 | 8.0 | 9.7 | 0.00 | 0.00 | 0.00 | 66 | 1021.6 |
| 20260906155210 | 23 | 138 | 1.6 | 9.7 | 0.00 | 0.00 | 0.00 | 67 | 1021.0 |
| 20260906154641 | 22 | 95 | 6.4 | 8.0 | 0.00 | 0.00 | 0.00 | 73 | 1021.0 |
| 20260906154141 | 22 | 92 | 8.0 | 12.9 | 0.00 | 0.00 | 0.00 | 72 | 1021.2 |
| 20260906153640 | 23 | 109 | 6.4 | 14.5 | 0.00 | 0.00 | 0.00 | 71 | 1021.3 |
| 20260906153555 | 22 | 58 | 9.7 | 11.3 | 0.00 | 0.00 | 0.00 | 73 | 1021.1 |
| 20260906152541 | 22 | 59 | 0.0 | 6.4 | 0.00 | 0.00 | 0.00 | 75 | 1021.4 |
| 20260906152041 | 22 | 55 | 9.7 | 12.9 | 0.00 | 0.00 | 0.00 | 76 | 1020.8 |
| 20260906151540 | 21 | 109 | 6.4 | 11.3 | 0.00 | 0.00 | 0.00 | 77 | 1021.2 |
| 20260906151011 | 22 | 96 | 9.7 | 12.9 | 0.00 | 0.00 | 0.00 | 76 | 1021.2 |
| 20260906150510 | 21 | 36 | 0.0 | 8.0 | 0.00 | 0.00 | 0.00 | 79 | 1021.2 |
| 20260906145941 | 21 | 57 | 3.2 | 11.3 | 0.00 | 0.00 | 0.00 | 79 | 1021.1 |
| 20260906145440 | 21 | 77 | 6.4 | 11.3 | 0.00 | 0.00 | 0.00 | 79 | 1021.4 |
| 20260906144940 | 21 | 80 | 6.4 | 9.7 | 0.00 | 0.00 | 0.00 | 82 | 1021.2 |
| 20260906144411 | 20 | 65 | 9.7 | 14.5 | 0.00 | 0.00 | 0.00 | 82 | 1020.9 |
| 20260906143910 | 20 | 98 | 9.7 | 11.3 | 0.00 | 0.00 | 0.00 | 81 | 1020.8 |
| 20260906143341 | 20 | 70 | 6.4 | 11.3 | 0.00 | 0.00 | 0.00 | 82 | 1021.1 |
| 20260906143102 | 21 | 64 | 6.4 | 11.3 | 0.00 | 0.00 | 0.00 | 81 | 1021.3 |
| 20260906142315 | 20 | 54 | 8.0 | 12.9 | 0.00 | 0.00 | 0.00 | 83 | 1021.3 |
| 20260906141741 | 20 | 98 | 3.2 | 9.7 | 0.00 | 0.00 | 0.00 | 82 | 1021.2 |
| 20260906141241 | 20 | 84 | 3.2 | 8.0 | 0.00 | 0.00 | 0.00 | 84 | 1021.4 |
| 20260906140740 | 20 | 111 | 8.0 | 9.7 | 0.00 | 0.00 | 0.00 | 83 | 1021.4 |
| 20260906140211 | 19 | 108 | 6.4 | 12.9 | 0.00 | 0.00 | 0.00 | 84 | 1021.4 |
| 20260906135930 | 19 | 92 | 4.8 | 9.7 | 0.00 | 0.00 | 0.00 | 83 | 1021.4 |
| 20260906135210 | 19 | 61 | 6.4 | 8.0 | 0.00 | 0.00 | 0.00 | 85 | 1021.6 |
| 20260906134641 | 18 | 82 | 8.0 | 9.7 | 0.00 | 0.00 | 0.00 | 84 | 1021.5 |
| 20260906134140 | 18 | 99 | 6.4 | 11.3 | 0.00 | 0.00 | 0.00 | 85 | 1021.5 |
| 20260906133611 | 18 | 98 | 6.4 | 11.3 | 0.00 | 0.00 | 0.00 | 83 | 1021.3 |
| 20260906133111 | 18 | 92 | 4.8 | 8.0 | 0.00 | 0.00 | 0.00 | 85 | 1021.3 |
| 20260906132610 | 17 | 121 | 4.8 | 9.7 | 0.00 | 0.00 | 0.00 | 86 | 1021.3 |
| 20260906132331 | 17 | 79 | 6.4 | 11.3 | 0.00 | 0.00 | 0.00 | 85 | 1021.2 |
| 20260906131610 | 17 | 73 | 6.4 | 11.3 | 0.00 | 0.00 | 0.00 | 85 | 1021.2 |
| 20260906131110 | 17 | 89 | 6.4 | 8.0 | 0.00 | 0.00 | 0.00 | 85 | 1021.3 |
| 20260906130541 | 17 | 100 | 1.6 | 6.4 | 0.00 | 0.00 | 0.00 | 85 | 1021.0 |
| 20260906130040 | 17 | 75 | 6.4 | 6.4 | 0.00 | 0.00 | 0.00 | 86 | 1021.1 |
| 20260906125511 | 16 | 66 | 3.2 | 9.7 | 0.00 | 0.00 | 0.00 | 86 | 1021.0 |
| 20260906125011 | 16 | 68 | 4.8 | 8.0 | 0.00 | 0.00 | 0.00 | 86 | 1021.0 |
| 20260906124441 | 16 | 105 | 1.6 | 12.9 | 0.00 | 0.00 | 0.00 | 86 | 1021.2 |
| 20260906123941 | 16 | 127 | 1.6 | 12.9 | 0.00 | 0.00 | 0.00 | 87 | 1021.0 |
| 20260906123410 | 16 | 77 | 8.0 | 9.7 | 0.00 | 0.00 | 0.00 | 87 | 1021.1 |
| 20260906122841 | 16 | 85 | 4.8 | 9.7 | 0.00 | 0.00 | 0.00 | 88 | 1021.0 |
| 20260906122341 | 15 | 85 | 6.4 | 9.7 | 0.00 | 0.00 | 0.00 | 90 | 1021.0 |
| 20260906121841 | 15 | 64 | 6.4 | 14.5 | 0.00 | 0.00 | 0.00 | 90 | 1020.8 |
| 20260906121311 | 15 | 95 | 4.8 | 9.7 | 0.00 | 0.00 | 0.00 | 91 | 1020.7 |
| 20260906120811 | 15 | 91 | 6.4 | 8.0 | 0.00 | 0.00 | 0.00 | 94 | 1020.9 |
| 20260906120755 | 14 | 99 | 3.2 | 6.4 | 0.00 | 0.00 | 0.00 | 96 | 1020.9 |
| 20260906115740 | 14 | 64 | 0.0 | 6.4 | 0.00 | 0.00 | 0.00 | 96 | 1020.8 |
| 20260906115211 | 14 | 91 | 0.0 | 3.2 | 0.00 | 0.00 | 0.00 | 96 | 1020.8 |
| 20260906114710 | 13 | 35 | 3.2 | 4.8 | 0.00 | 0.00 | 0.00 | 96 | 1020.6 |
| 20260906114210 | 13 | 79 | 1.6 | 4.8 | 0.00 | 0.00 | 0.00 | 97 | 1020.7 |
| 20260906113641 | 13 | 97 | 3.2 | 4.8 | 0.00 | 0.00 | 0.00 | 97 | 1020.5 |
| 20260906113111 | 13 | 113 | 3.2 | 4.8 | 0.00 | 0.00 | 0.00 | 97 | 1020.4 |
| 20260906112611 | 13 | 71 | 4.8 | 8.0 | 0.00 | 0.00 | 0.00 | 97 | 1020.2 |
| 20260906112111 | 13 | 84 | 4.8 | 6.4 | 0.00 | 0.00 | 0.00 | 97 | 1020.1 |
| 20260906111610 | 13 | 91 | 3.2 | 4.8 | 0.00 | 0.00 | 0.00 | 97 | 1020.3 |
| 20260906111110 | 13 | 99 | 0.0 | 4.8 | 0.00 | 0.00 | 0.00 | 97 | 1020.2 |
| 20260906110801 | 13 | 82 | 3.2 | 4.8 | 0.00 | 0.00 | 0.00 | 97 | 1019.8 |
| 20260906110011 | 13 | 99 | 1.6 | 4.8 | 0.00 | 0.00 | 0.00 | 96 | 1019.9 |
| 20260906105510 | 13 | 103 | 3.2 | 4.8 | 0.00 | 0.00 | 0.00 | 96 | 1019.8 |
| 20260906105010 | 13 | 89 | 3.2 | 4.8 | 0.00 | 0.00 | 0.00 | 97 | 1019.8 |
| 20260906104441 | 13 | 106 | 3.2 | 4.8 | 0.00 | 0.00 | 0.00 | 97 | 1019.5 |
| 20260906103941 | 13 | 100 | 1.6 | 4.8 | 0.00 | 0.00 | 0.00 | 97 | 1019.5 |
| 20260906103440 | 13 | 86 | 1.6 | 6.4 | 0.00 | 0.00 | 0.00 | 97 | 1019.9 |
| 20260906102911 | 13 | 80 | 4.8 | 6.4 | 0.00 | 0.00 | 0.00 | 97 | 1019.9 |
| 20260906102630 | 13 | 83 | 3.2 | 6.4 | 0.00 | 0.00 | 0.00 | 97 | 1019.8 |
| 20260906101910 | 13 | 97 | 3.2 | 6.4 | 0.00 | 0.00 | 0.00 | 97 | 1019.8 |
| 20260906101341 | 13 | 102 | 3.2 | 6.4 | 0.00 | 0.00 | 0.00 | 97 | 1019.9 |
| 20260906101100 | 13 | 105 | 1.6 | 4.8 | 0.00 | 0.00 | 0.00 | 97 | 1019.9 |
| 20260906100311 | 13 | 73 | 3.2 | 6.4 | 0.00 | 0.00 | 0.00 | 97 | 1020.0 |
| 20260906100030 | 13 | 94 | 4.8 | 6.4 | 0.00 | 0.00 | 0.00 | 97 | 1020.0 |
| 20260906095241 | 13 | 64 | 0.0 | 6.4 | 0.00 | 0.00 | 0.00 | 96 | 1019.9 |
| 20260906094740 | 13 | 58 | 3.2 | 6.4 | 0.00 | 0.00 | 0.00 | 96 | 1019.9 |
| 20260906094500 | 13 | 358 | 1.6 | 6.4 | 0.00 | 0.00 | 0.00 | 96 | 1019.7 |
| 20260906093711 | 13 | 95 | 4.8 | 6.4 | 0.00 | 0.00 | 0.00 | 96 | 1019.6 |
| 20260906093210 | 13 | 94 | 4.8 | 6.4 | 0.00 | 0.00 | 0.00 | 96 | 1019.8 |
| 20260906092710 | 13 | 106 | 3.2 | 6.4 | 0.00 | 0.00 | 0.00 | 96 | 1019.7 |
| 20260906092141 | 13 | 104 | 6.4 | 6.4 | 0.00 | 0.00 | 0.00 | 96 | 1019.7 |
| 20260906091641 | 13 | 105 | 3.2 | 6.4 | 0.00 | 0.00 | 0.00 | 96 | 1019.9 |
| 20260906091140 | 13 | 51 | 3.2 | 4.8 | 0.00 | 0.00 | 0.00 | 96 | 1020.0 |
| 20260906090640 | 13 | 75 | 4.8 | 4.8 | 0.00 | 0.00 | 0.00 | 96 | 1019.6 |
| 20260906090111 | 13 | 38 | 4.8 | 4.8 | 0.00 | 0.00 | 0.00 | 96 | 1019.8 |
| 20260906085611 | 14 | 46 | 1.6 | 6.4 | 0.00 | 0.00 | 0.00 | 97 | 1019.6 |
| 20260906085332 | 14 | 94 | 3.2 | 4.8 | 0.00 | 0.00 | 0.00 | 97 | 1019.6 |
| 20260906084540 | 14 | 14 | 3.2 | 3.2 | 0.00 | 0.00 | 0.00 | 96 | 1019.9 |
| 20260906084457 | 14 | 52 | 0.0 | 3.2 | 0.00 | 0.00 | 0.00 | 96 | 1019.9 |
| 20260906083441 | 14 | 206 | 3.2 | 4.8 | 0.00 | 0.00 | 0.00 | 96 | 1019.9 |
| 20260906082941 | 14 | 283 | 0.0 | 4.8 | 0.00 | 0.00 | 0.00 | 96 | 1019.8 |
| 20260906082441 | 14 | 95 | 1.6 | 6.4 | 0.00 | 0.00 | 0.00 | 96 | 1019.1 |
| 20260906081911 | 14 | 277 | 1.6 | 4.8 | 0.00 | 0.00 | 0.00 | 96 | 1019.8 |
| 20260906081411 | 14 | 16 | 1.6 | 4.8 | 0.00 | 0.00 | 0.00 | 96 | 1019.3 |
| 20260906080910 | 13 | 291 | 0.0 | 6.4 | 0.00 | 0.00 | 0.00 | 96 | 1019.3 |
| 20260906080410 | 14 | 128 | 3.2 | 6.4 | 0.00 | 0.00 | 0.00 | 96 | 1019.1 |
| 20260906075841 | 14 | 102 | 3.2 | 6.4 | 0.00 | 0.00 | 0.00 | 96 | 1019.3 |
| 20260906075311 | 14 | 120 | 3.2 | 4.8 | 0.00 | 0.00 | 0.00 | 96 | 1019.4 |
| 20260906074811 | 13 | 161 | 3.2 | 6.4 | 0.00 | 0.00 | 0.00 | 96 | 1019.4 |
| 20260906074241 | 14 | 108 | 3.2 | 6.4 | 0.00 | 0.00 | 0.00 | 96 | 1019.6 |
| 20260906073741 | 14 | 107 | 3.2 | 4.8 | 0.00 | 0.00 | 0.00 | 96 | 1019.5 |
| 20260906073211 | 14 | 260 | 1.6 | 4.8 | 0.00 | 0.00 | 0.00 | 96 | 1019.2 |
| 20260906072711 | 14 | 139 | 3.2 | 6.4 | 0.00 | 0.00 | 0.00 | 96 | 1019.5 |
| 20260906072210 | 14 | 81 | 3.2 | 6.4 | 0.00 | 0.00 | 0.00 | 95 | 1019.4 |
| 20260906071710 | 14 | 130 | 3.2 | 4.8 | 0.00 | 0.00 | 0.00 | 95 | 1019.5 |
| 20260906071359 | 14 | 137 | 3.2 | 6.4 | 0.00 | 0.00 | 0.00 | 95 | 1019.4 |
| 20260906070641 | 14 | 72 | 3.2 | 8.0 | 0.00 | 0.00 | 0.00 | 95 | 1019.3 |
| 20260906070401 | 14 | 127 | 6.4 | 6.4 | 0.00 | 0.00 | 0.00 | 96 | 1019.8 |
| 20260906065640 | 14 | 99 | 3.2 | 8.0 | 0.00 | 0.00 | 0.00 | 96 | 1019.5 |
| 20260906065140 | 14 | 129 | 9.7 | 9.7 | 0.00 | 0.00 | 0.00 | 96 | 1019.6 |
| 20260906064611 | 14 | 81 | 4.8 | 6.4 | 0.00 | 0.00 | 0.00 | 95 | 1019.6 |
| 20260906064110 | 15 | 11 | 0.0 | 6.4 | 0.00 | 0.00 | 0.00 | 95 | 1019.6 |
| 20260906063610 | 15 | 48 | 3.2 | 8.0 | 0.00 | 0.00 | 0.00 | 95 | 1019.6 |
| 20260906063040 | 15 | 171 | 4.8 | 8.0 | 0.00 | 0.00 | 0.00 | 95 | 1019.4 |
| 20260906062540 | 15 | 132 | 3.2 | 6.4 | 0.00 | 0.00 | 0.00 | 95 | 1019.6 |
| 20260906062011 | 15 | 217 | 4.8 | 8.0 | 0.00 | 0.00 | 0.00 | 95 | 1019.6 |
| 20260906061511 | 15 | 214 | 3.2 | 3.2 | 0.00 | 0.00 | 0.00 | 95 | 1019.7 |
| 20260906061010 | 15 | 155 | 3.2 | 6.4 | 0.00 | 0.00 | 0.00 | 94 | 1019.0 |
| 20260906060511 | 15 | 70 | 3.2 | 8.0 | 0.00 | 0.00 | 0.00 | 94 | 1019.4 |
| 20260906055941 | 15 | 120 | 4.8 | 6.4 | 0.00 | 0.00 | 0.00 | 94 | 1019.3 |
| 20260906055410 | 15 | 238 | 1.6 | 8.0 | 0.00 | 0.00 | 0.00 | 94 | 1019.1 |
| 20260906054840 | 15 | 192 | 6.4 | 8.0 | 0.00 | 0.00 | 0.00 | 93 | 1018.8 |
| 20260906054340 | 15 | 155 | 0.0 | 3.2 | 0.00 | 0.00 | 0.00 | 93 | 1019.0 |
| 20260906053811 | 15 | 122 | 3.2 | 8.0 | 0.00 | 0.00 | 0.00 | 93 | 1018.7 |
| 20260906053241 | 15 | 102 | 0.0 | 6.4 | 0.00 | 0.00 | 0.00 | 94 | 1018.7 |
| 20260906052933 | 15 | 140 | 1.6 | 3.2 | 0.00 | 0.00 | 0.00 | 95 | 1018.8 |
| 20260906052211 | 15 | 154 | 6.4 | 6.4 | 0.00 | 0.00 | 0.00 | 95 | 1018.7 |
| 20260906051710 | 15 | 36 | 0.0 | 6.4 | 0.00 | 0.00 | 0.00 | 95 | 1018.6 |
| 20260906051210 | 15 | 69 | 0.0 | 1.6 | 0.00 | 0.00 | 0.00 | 95 | 1018.8 |
| 20260906050641 | 15 | 66 | 1.6 | 3.2 | 0.00 | 0.00 | 0.00 | 95 | 1018.8 |
| 20260906050141 | 15 | 89 | 0.0 | 1.6 | 0.00 | 0.00 | 0.00 | 96 | 1018.7 |
| 20260906045640 | 15 | 101 | 3.2 | 4.8 | 0.00 | 0.00 | 0.00 | 96 | 1018.6 |
| 20260906045140 | 15 | 68 | 1.6 | 3.2 | 0.00 | 0.00 | 0.00 | 96 | 1018.6 |
| 20260906044610 | 15 | 94 | 1.6 | 3.2 | 0.00 | 0.00 | 0.00 | 96 | 1018.7 |
| 20260906044110 | 15 | 80 | 1.6 | 3.2 | 0.00 | 0.00 | 0.00 | 95 | 1018.7 |
| 20260906043541 | 15 | 86 | 1.6 | 3.2 | 0.00 | 0.00 | 0.00 | 95 | 1018.6 |
| 20260906043040 | 15 | 60 | 1.6 | 3.2 | 0.00 | 0.00 | 0.00 | 95 | 1018.4 |
| 20260906042511 | 15 | 93 | 1.6 | 3.2 | 0.00 | 0.00 | 0.00 | 95 | 1018.3 |
| 20260906042011 | 15 | 94 | 3.2 | 4.8 | 0.00 | 0.00 | 0.00 | 95 | 1018.5 |
| 20260906041511 | 15 | 103 | 1.6 | 3.2 | 0.00 | 0.00 | 0.00 | 95 | 1018.4 |
| 20260906041010 | 16 | 103 | 1.6 | 3.2 | 0.00 | 0.00 | 0.00 | 95 | 1018.4 |
| 20260906040510 | 16 | 84 | 3.2 | 3.2 | 0.00 | 0.00 | 0.00 | 95 | 1018.4 |
| 20260906040202 | 16 | 82 | 3.2 | 4.8 | 0.00 | 0.00 | 0.00 | 95 | 1018.4 |
| 20260906035441 | 16 | 93 | 1.6 | 3.2 | 0.00 | 0.00 | 0.00 | 95 | 1018.4 |
| 20260906034940 | 16 | 92 | 1.6 | 3.2 | 0.00 | 0.00 | 0.00 | 95 | 1018.5 |
| 20260906034700 | 16 | 87 | 0.0 | 1.6 | 0.00 | 0.00 | 0.00 | 95 | 1018.3 |
| 20260906033940 | 16 | 107 | 3.2 | 4.8 | 0.00 | 0.00 | 0.00 | 94 | 1018.3 |
| 20260906033411 | 16 | 107 | 1.6 | 3.2 | 0.00 | 0.00 | 0.00 | 94 | 1018.5 |
| 20260906032911 | 16 | 114 | 1.6 | 3.2 | 0.00 | 0.00 | 0.00 | 94 | 1018.4 |
| 20260906032341 | 16 | 105 | 0.0 | 3.2 | 0.00 | 0.00 | 0.00 | 93 | 1018.4 |
| 20260906031840 | 16 | 129 | 0.0 | 1.6 | 0.00 | 0.00 | 0.00 | 93 | 1018.1 |
| 20260906031311 | 16 | 129 | 0.0 | 3.2 | 0.00 | 0.00 | 0.00 | 93 | 1018.6 |
| 20260906030811 | 16 | 108 | 3.2 | 3.2 | 0.00 | 0.00 | 0.00 | 93 | 1018.5 |
| 20260906030241 | 16 | 99 | 1.6 | 3.2 | 0.00 | 0.00 | 0.00 | 92 | 1018.1 |
| 20260906025740 | 16 | 126 | 1.6 | 3.2 | 0.00 | 0.00 | 0.00 | 91 | 1018.5 |
| 20260906025240 | 16 | 119 | 0.0 | 3.2 | 0.00 | 0.00 | 0.00 | 91 | 1018.3 |
| 20260906024710 | 16 | 87 | 1.6 | 3.2 | 0.00 | 0.00 | 0.00 | 91 | 1018.5 |
| 20260906024210 | 17 | 89 | 0.0 | 1.6 | 0.00 | 0.00 | 0.00 | 90 | 1018.0 |
| 20260906023640 | 17 | 107 | 3.2 | 4.8 | 0.00 | 0.00 | 0.00 | 90 | 1018.1 |
| 20260906023140 | 16 | 105 | 4.8 | 4.8 | 0.00 | 0.00 | 0.00 | 90 | 1018.2 |
| 20260906023055 | 16 | 119 | 3.2 | 3.2 | 0.00 | 0.00 | 0.00 | 89 | 1018.3 |
| 20260906022110 | 17 | 110 | 1.6 | 1.6 | 0.00 | 0.00 | 0.00 | 88 | 1018.1 |
| 20260906021610 | 17 | 98 | 3.2 | 3.2 | 0.00 | 0.00 | 0.00 | 88 | 1017.9 |
| 20260906021041 | 17 | 120 | 3.2 | 3.2 | 0.00 | 0.00 | 0.00 | 86 | 1017.9 |
| 20260906020540 | 17 | 95 | 3.2 | 4.8 | 0.00 | 0.00 | 0.00 | 86 | 1017.8 |
| 20260906020040 | 17 | 107 | 3.2 | 3.2 | 0.00 | 0.00 | 0.00 | 86 | 1018.0 |
| 20260906015511 | 17 | 101 | 3.2 | 3.2 | 0.00 | 0.00 | 0.00 | 86 | 1018.3 |
| 20260906015011 | 17 | 103 | 3.2 | 3.2 | 0.00 | 0.00 | 0.00 | 85 | 1018.0 |
| 20260906014510 | 17 | 115 | 1.6 | 3.2 | 0.00 | 0.00 | 0.00 | 84 | 1018.0 |
| 20260906014426 | 18 | 117 | 3.2 | 3.2 | 0.00 | 0.00 | 0.00 | 83 | 1017.9 |
| 20260906013629 | 18 | 101 | 1.6 | 3.2 | 0.00 | 0.00 | 0.00 | 82 | 1017.7 |
| 20260906012841 | 18 | 141 | 3.2 | 3.2 | 0.00 | 0.00 | 0.00 | 83 | 1017.7 |
| 20260906012602 | 18 | 154 | 0.0 | 3.2 | 0.00 | 0.00 | 0.00 | 83 | 1018.1 |
| 20260906011811 | 18 | 146 | 1.6 | 3.2 | 0.00 | 0.00 | 0.00 | 81 | 1017.9 |
| 20260906011311 | 19 | 142 | 1.6 | 1.6 | 0.00 | 0.00 | 0.00 | 81 | 1017.9 |
| 20260906010810 | 19 | 154 | 0.0 | 0.0 | 0.00 | 0.00 | 0.00 | 78 | 1017.7 |
| 20260906010501 | 20 | 102 | 3.2 | 3.2 | 0.00 | 0.00 | 0.00 | 78 | 1018.0 |
| 20260906005740 | 20 | 113 | 3.2 | 4.8 | 0.00 | 0.00 | 0.00 | 77 | 1017.8 |
| 20260906005211 | 20 | 102 | 3.2 | 4.8 | 0.00 | 0.00 | 0.00 | 75 | 1017.7 |
| 20260906004710 | 20 | 98 | 4.8 | 6.4 | 0.00 | 0.00 | 0.00 | 75 | 1017.5 |
| 20260906004210 | 20 | 110 | 3.2 | 6.4 | 0.00 | 0.00 | 0.00 | 77 | 1017.8 |
| 20260906003900 | 20 | 102 | 4.8 | 6.4 | 0.00 | 0.00 | 0.00 | 76 | 1017.7 |
| 20260906003140 | 21 | 95 | 4.8 | 4.8 | 0.00 | 0.00 | 0.00 | 76 | 1017.5 |
| 20260906002611 | 21 | 121 | 3.2 | 4.8 | 0.00 | 0.00 | 0.00 | 75 | 1017.6 |
| 20260906002330 | 21 | 112 | 4.8 | 4.8 | 0.00 | 0.00 | 0.00 | 74 | 1017.6 |
| 20260906001610 | 21 | 95 | 3.2 | 4.8 | 0.00 | 0.00 | 0.00 | 74 | 1017.3 |
| 20260906001041 | 21 | 104 | 4.8 | 6.4 | 0.00 | 0.00 | 0.00 | 72 | 1017.2 |
| 20260906000540 | 22 | 109 | 4.8 | 6.4 | 0.00 | 0.00 | 0.00 | 71 | 1017.2 |
| 20260906000040 | 22 | 105 | 3.2 | 6.4 | 0.00 | 0.00 | 0.00 | 70 | 1017.2 |
| 20260905235730 | 22 | 80 | 3.2 | 6.4 | 0.00 | 0.00 | 0.00 | 69 | 1017.0 |
| 20260905235010 | 22 | 83 | 3.2 | 6.4 | 0.00 | 0.00 | 0.00 | 67 | 1017.2 |
| 20260905234703 | 23 | 110 | 6.4 | 9.7 | 0.00 | 0.00 | 0.00 | 65 | 1017.5 |
| 20260905234200 | 23 | 115 | 4.8 | 4.8 | 0.00 | 0.00 | 0.00 | 63 | 1017.0 |
| 20260905233440 | 23 | 94 | 6.4 | 8.0 | 0.00 | 0.00 | 0.00 | 62 | 1017.4 |
| 20260905232911 | 23 | 93 | 6.4 | 8.0 | 0.00 | 0.00 | 0.00 | 61 | 1017.2 |
| 20260905232341 | 23 | 76 | 8.0 | 9.7 | 0.00 | 0.00 | 0.00 | 61 | 1017.5 |
| 20260905231841 | 23 | 87 | 4.8 | 9.7 | 0.00 | 0.00 | 0.00 | 61 | 1017.0 |
| 20260905231340 | 23 | 85 | 3.2 | 14.5 | 0.00 | 0.00 | 0.00 | 59 | 1017.2 |
| 20260905230840 | 23 | 65 | 4.8 | 14.5 | 0.00 | 0.00 | 0.00 | 59 | 1017.0 |
| 20260905230533 | 24 | 96 | 12.9 | 14.5 | 0.00 | 0.00 | 0.00 | 59 | 1017.0 |
| 20260905225811 | 24 | 87 | 4.8 | 14.5 | 0.00 | 0.00 | 0.00 | 58 | 1017.1 |
| 20260905225311 | 24 | 71 | 8.0 | 14.5 | 0.00 | 0.00 | 0.00 | 58 | 1017.1 |
| 20260905224741 | 24 | 96 | 9.7 | 12.9 | 0.00 | 0.00 | 0.00 | 59 | 1017.5 |
| 20260905224240 | 24 | 70 | 4.8 | 9.7 | 0.00 | 0.00 | 0.00 | 59 | 1017.5 |
| 20260905223711 | 24 | 67 | 6.4 | 11.3 | 0.00 | 0.00 | 0.00 | 58 | 1017.4 |
| 20260905223210 | 25 | 111 | 11.3 | 14.5 | 0.00 | 0.00 | 0.00 | 58 | 1017.1 |
| 20260905222710 | 25 | 82 | 8.0 | 14.5 | 0.00 | 0.00 | 0.00 | 58 | 1017.2 |
| 20260905222210 | 25 | 96 | 6.4 | 11.3 | 0.00 | 0.00 | 0.00 | 58 | 1017.1 |
| 20260905221641 | 25 | 118 | 4.8 | 11.3 | 0.00 | 0.00 | 0.00 | 58 | 1017.2 |
| 20260905221140 | 24 | 99 | 11.3 | 12.9 | 0.00 | 0.00 | 0.00 | 59 | 1017.2 |
| 20260905220640 | 25 | 104 | 6.4 | 9.7 | 0.00 | 0.00 | 0.00 | 59 | 1017.3 |
| 20260905220111 | 25 | 89 | 0.0 | 6.4 | 0.00 | 0.00 | 0.00 | 61 | 1016.8 |
| 20260905215611 | 25 | 116 | 6.4 | 8.0 | 0.00 | 0.00 | 0.00 | 62 | 1016.9 |
| 20260905215331 | 24 | 54 | 9.7 | 11.3 | 0.00 | 0.00 | 0.00 | 62 | 1017.3 |
| 20260905214611 | 24 | 77 | 4.8 | 8.0 | 0.00 | 0.00 | 0.00 | 64 | 1016.9 |
| 20260905214041 | 23 | 94 | 6.4 | 8.0 | 0.00 | 0.00 | 0.00 | 65 | 1017.1 |
| 20260905213511 | 24 | 92 | 8.0 | 8.0 | 0.00 | 0.00 | 0.00 | 65 | 1016.8 |
| 20260905213230 | 24 | 88 | 4.8 | 9.7 | 0.00 | 0.00 | 0.00 | 63 | 1017.3 |
| 20260905212731 | 24 | 78 | 6.4 | 9.7 | 0.00 | 0.00 | 0.00 | 65 | 1017.2 |
| 20260905211941 | 24 | 62 | 6.4 | 12.9 | 0.00 | 0.00 | 0.00 | 63 | 1017.2 |
| 20260905211411 | 25 | 61 | 6.4 | 12.9 | 0.00 | 0.00 | 0.00 | 60 | 1017.2 |
| 20260905210841 | 25 | 80 | 4.8 | 8.0 | 0.00 | 0.00 | 0.00 | 62 | 1017.3 |
| 20260905210311 | 24 | 120 | 1.6 | 6.4 | 0.00 | 0.00 | 0.00 | 66 | 1017.0 |
| 20260905205811 | 24 | 119 | 0.0 | 6.4 | 0.00 | 0.00 | 0.00 | 66 | 1017.0 |
| 20260905205311 | 23 | 117 | 4.8 | 8.0 | 0.00 | 0.00 | 0.00 | 67 | 1017.5 |
| 20260905204741 | 24 | 97 | 8.0 | 9.7 | 0.00 | 0.00 | 0.00 | 67 | 1017.1 |
| 20260905204241 | 24 | 80 | 4.8 | 8.0 | 0.00 | 0.00 | 0.00 | 67 | 1017.1 |
| 20260905203740 | 24 | 70 | 4.8 | 4.8 | 0.00 | 0.00 | 0.00 | 67 | 1017.2 |
| 20260905203432 | 25 | 99 | 4.8 | 8.0 | 0.00 | 0.00 | 0.00 | 66 | 1017.3 |
| 20260905202710 | 24 | 13 | 1.6 | 4.8 | 0.00 | 0.00 | 0.00 | 67 | 1017.1 |
| 20260905202141 | 24 | 102 | 8.0 | 9.7 | 0.00 | 0.00 | 0.00 | 69 | 1017.3 |
| 20260905201640 | 25 | 75 | 8.0 | 11.3 | 0.00 | 0.00 | 0.00 | 65 | 1016.9 |
| 20260905201140 | 25 | 129 | 4.8 | 6.4 | 0.00 | 0.00 | 0.00 | 67 | 1016.7 |
| 20260905200640 | 24 | 92 | 4.8 | 11.3 | 0.00 | 0.00 | 0.00 | 68 | 1017.1 |
| 20260905200111 | 23 | 66 | 11.3 | 16.1 | 0.00 | 0.00 | 0.00 | 68 | 1017.0 |
| 20260905195610 | 24 | 53 | 3.2 | 9.7 | 0.00 | 0.00 | 0.00 | 69 | 1017.1 |
| 20260905195041 | 24 | 71 | 3.2 | 9.7 | 0.00 | 0.00 | 0.00 | 69 | 1017.0 |
| 20260905194541 | 23 | 114 | 3.2 | 12.9 | 0.00 | 0.00 | 0.00 | 69 | 1017.2 |
| 20260905194040 | 23 | 84 | 3.2 | 9.7 | 0.00 | 0.00 | 0.00 | 71 | 1017.1 |
| 20260905193511 | 24 | 82 | 8.0 | 12.9 | 0.00 | 0.00 | 0.00 | 69 | 1017.1 |
| 20260905193229 | 26 | 86 | 3.2 | 11.3 | 0.00 | 0.00 | 0.00 | 65 | 1017.1 |
| 20260905192441 | 25 | 95 | 1.6 | 11.3 | 0.00 | 0.00 | 0.00 | 68 | 1017.1 |
| 20260905192202 | 25 | 32 | 4.8 | 8.0 | 0.00 | 0.00 | 0.00 | 69 | 1017.4 |
| 20260905191411 | 24 | 21 | 1.6 | 8.0 | 0.00 | 0.00 | 0.00 | 71 | 1017.1 |
| 20260905190910 | 25 | 21 | 3.2 | 11.3 | 0.00 | 0.00 | 0.00 | 70 | 1017.0 |
| 20260905190341 | 25 | 340 | 4.8 | 12.9 | 0.00 | 0.00 | 0.00 | 70 | 1016.9 |
| 20260905185840 | 23 | 81 | 4.8 | 6.4 | 0.00 | 0.00 | 0.00 | 74 | 1017.2 |
| 20260905185311 | 24 | 350 | 4.8 | 9.7 | 0.00 | 0.00 | 0.00 | 71 | 1017.2 |
| 20260905184741 | 23 | 73 | 6.4 | 16.1 | 0.00 | 0.00 | 0.00 | 71 | 1017.0 |
| 20260905184240 | 24 | 69 | 8.0 | 12.9 | 0.00 | 0.00 | 0.00 | 72 | 1017.2 |
| 20260905183740 | 23 | 81 | 3.2 | 9.7 | 0.00 | 0.00 | 0.00 | 76 | 1017.4 |
| 20260905183240 | 23 | 72 | 6.4 | 12.9 | 0.00 | 0.00 | 0.00 | 74 | 1017.4 |
| 20260905182210 | 23 | 60 | 6.4 | 11.3 | 0.00 | 0.00 | 0.00 | 74 | 1017.6 |
| 20260905181710 | 23 | 0 | 3.2 | 9.7 | 0.00 | 0.00 | 0.00 | 74 | 1017.8 |
| 20260905181141 | 23 | 78 | 1.6 | 8.0 | 0.00 | 0.00 | 0.00 | 77 | 1017.6 |
| 20260905180641 | 22 | 76 | 1.6 | 12.9 | 0.00 | 0.00 | 0.00 | 78 | 1017.4 |
| 20260905180140 | 23 | 22 | 3.2 | 9.7 | 0.00 | 0.00 | 0.00 | 77 | 1017.4 |
| 20260905175611 | 22 | 65 | 14.5 | 17.7 | 0.00 | 0.00 | 0.00 | 78 | 1017.4 |
| 20260905175330 | 23 | 51 | 8.0 | 14.5 | 0.00 | 0.00 | 0.00 | 77 | 1017.3 |
| 20260905175027 | 22 | 66 | 8.0 | 17.7 | 0.00 | 0.00 | 0.00 | 78 | 1017.5 |
| 20260905174040 | 22 | 142 | 3.2 | 9.7 | 0.00 | 0.00 | 0.00 | 78 | 1017.5 |
| 20260905173511 | 22 | 69 | 6.4 | 12.9 | 0.00 | 0.00 | 0.00 | 80 | 1017.3 |
| 20260905173200 | 22 | 52 | 9.7 | 14.5 | 0.00 | 0.00 | 0.00 | 79 | 1017.7 |
| 20260905172411 | 22 | 79 | 4.8 | 11.3 | 0.00 | 0.00 | 0.00 | 82 | 1017.8 |
| 20260905171840 | 22 | 83 | 4.8 | 9.7 | 0.00 | 0.00 | 0.00 | 82 | 1017.5 |
| 20260905171311 | 22 | 61 | 6.4 | 11.3 | 0.00 | 0.00 | 0.00 | 81 | 1017.7 |
| 20260905170811 | 22 | 29 | 0.0 | 9.7 | 0.00 | 0.00 | 0.00 | 81 | 1017.5 |
| 20260905170240 | 22 | 83 | 3.2 | 9.7 | 0.00 | 0.00 | 0.00 | 82 | 1018.1 |
| 20260905165740 | 22 | 35 | 3.2 | 11.3 | 0.00 | 0.00 | 0.00 | 83 | 1017.7 |
| 20260905165431 | 21 | 308 | 1.6 | 12.9 | 0.00 | 0.00 | 0.00 | 83 | 1017.7 |
| 20260905164711 | 21 | 61 | 14.5 | 17.7 | 0.00 | 0.00 | 0.00 | 84 | 1018.1 |
| 20260905164210 | 21 | 77 | 3.2 | 12.9 | 0.00 | 0.00 | 0.00 | 84 | 1018.1 |
| 20260905163710 | 21 | 77 | 8.0 | 9.7 | 0.00 | 0.00 | 0.00 | 84 | 1018.4 |
| 20260905163627 | 21 | 11 | 8.0 | 11.3 | 0.00 | 0.00 | 0.00 | 85 | 1018.1 |
| 20260905162611 | 21 | 30 | 6.4 | 9.7 | 0.00 | 0.00 | 0.00 | 84 | 1018.1 |
| 20260905162110 | 21 | 63 | 3.2 | 9.7 | 0.00 | 0.00 | 0.00 | 85 | 1018.0 |